Wind_Speed
21 20 20 21 21 21 21 21 22 22 23 23 23 23 22 21 21 20 20 20 20 20 19 19 18 19 18 18 17 17 17 17 17 17 16 16 15 14 14 14 14 14 13 12 12 11 11 11 10 10 9 9 9 8 7 7 7 7 7 6 4 4 4 4 4 4 4 4 4 4 4 4 5 6 7 8 8 8 7 7 6 5 4 3 2
22 21 20 20 20 21 21 21 22 23 24 23 23 22 21 21 20 21 21 21 21 20 20 19 19 20 20 19 18 18 17 18 18 17 16 15 14 13 14 14 14 13 13 12 11 10 10 10 10 10 9 9 9 8 8 7 7 7 7 6 4 4 4 4 4 4 4 4 4 5 5 5 5 6 7 8 9 8 8 7 6 5 4 3 3
23 21 20 20 20 20 21 21 22 23 24 23 23 22 21 20 20 21 21 21 21 20 20 20 21 21 21 21 19 18 18 17 17 17 16 14 13 13 13 13 13 13 13 12 10 9 9 9 9 9 9 9 9 8 8 7 7 7 7 5 5 4 4 3 3 3 3 4 4 5 5 5 5 6 7 8 9 9 9 8 7 6 5 4 3
19 18 18 19 19 20 21 22 23 24 24 23 22 21 20 20 21 21 22 21 21 21 21 22 22 23 23 22 20 19 18 17 17 16 15 14 12 12 12 13 13 13 12 11 10 9 8 9 9 9 9 9 9 8 8 7 7 7 6 6 5 4 3 3 3 3 3 4 4 5 6 6 6 7 7 9 9 9 9 9 8 7 5 4 4
19 18 18 19 20 22 23 23 24 24 23 22 20 20 20 20 21 21 22 21 21 21 21 22 23 24 23 22 20 19 18 17 17 16 15 13 11 12 12 12 12 12 12 11 10 9 8 9 9 9 9 9 9 8 7 7 7 7 6 6 5 4 3 3 2 2 2 3 4 6 6 6 6 7 8 9 10 10 10 9 9 8 6 5 5
22 22 21 22 22 24 24 25 24 23 21 20 20 19 20 21 21 21 21 21 21 22 22 22 23 24 23 22 20 18 17 17 17 16 15 13 11 11 12 12 12 12 11 11 10 9 8 8 9 9 9 9 9 8 7 7 7 7 6 6 6 5 4 3 3 2 2 3 4 6 7 7 7 7 8 9 10 11 10 10 9 8 7 6 5
24 24 24 24 24 24 25 25 23 21 20 19 19 20 20 20 21 21 21 21 22 22 22 22 22 22 22 21 19 18 17 17 17 16 15 13 12 11 12 12 11 11 10 10 10 9 8 8 9 9 9 9 9 8 7 7 7 7 6 6 6 5 4 3 2 2 2 3 4 6 6 7 7 8 8 9 10 11 11 11 10 9 8 7 6
25 25 24 24 24 24 24 23 21 20 19 19 19 20 20 20 21 21 21 22 22 22 22 22 21 21 21 20 19 18 17 17 16 16 15 14 12 12 12 12 11 11 10 10 9 9 8 8 8 9 9 9 8 8 8 8 7 6 6 6 6 5 4 3 2 2 2 2 3 5 6 7 8 8 8 9 10 11 11 11 11 10 9 8 7
26 25 24 24 24 24 23 21 20 19 19 19 19 20 20 21 21 21 22 22 23 23 22 21 20 21 21 20 20 19 18 17 16 15 15 14 13 13 13 12 11 11 10 10 9 9 8 8 8 9 9 9 8 8 8 9 8 6 6 6 6 5 3 2 2 2 1 2 2 3 5 8 8 8 8 9 10 11 12 12 11 11 10 9 8
24 24 25 24 24 23 21 19 19 18 19 19 20 20 21 21 22 22 23 23 23 23 22 21 21 21 21 21 20 20 19 18 16 15 15 15 14 14 14 13 12 11 10 10 9 8 8 8 8 9 9 9 8 8 9 9 8 7 6 6 6 5 3 2 2 2 2 1 1 2 5 7 8 8 8 9 10 11 11 12 12 11 10 10 9
23 24 25 24 22 20 19 18 18 18 19 20 21 21 22 22 22 22 23 24 23 23 23 22 22 22 23 22 22 21 20 19 17 16 16 15 15 15 15 14 13 12 10 10 9 8 8 8 8 9 9 9 9 9 9 9 8 7 7 7 7 6 4 3 2 2 2 1 1 3 4 6 7 8 8 9 9 10 11 11 12 12 11 10 9
23 24 23 22 20 18 17 17 17 18 19 20 21 22 22 22 22 23 23 23 23 23 23 23 23 23 23 23 23 23 22 20 19 17 16 16 15 16 16 15 14 12 11 9 9 9 8 7 8 8 8 9 9 10 10 10 9 9 8 8 8 7 5 4 3 3 2 1 2 2 3 4 6 8 8 8 9 10 11 11 12 12 12 11 10
22 22 20 19 18 17 17 17 18 19 20 21 22 22 22 22 22 23 23 24 24 24 23 22 22 23 23 24 24 24 23 21 19 18 17 17 17 17 17 16 15 14 12 10 9 9 8 7 7 9 9 10 10 11 11 10 10 10 9 9 8 8 6 5 4 4 2 2 2 2 2 3 5 7 8 8 8 9 9 10 11 12 12 11 11
20 20 18 18 17 17 18 19 20 21 22 22 22 21 21 21 22 23 24 24 23 23 22 22 22 23 24 25 25 24 23 21 20 19 18 17 18 19 19 17 16 15 13 11 9 9 8 7 8 9 10 10 10 11 11 11 11 11 10 10 9 9 8 6 6 5 3 2 2 2 2 3 4 5 7 8 8 8 8 9 10 11 12 12 11
18 17 16 17 17 18 19 20 21 22 22 22 22 21 21 22 23 23 23 23 22 21 21 21 22 23 24 25 24 24 23 22 21 19 19 19 19 21 21 19 17 15 14 12 10 9 8 8 9 10 10 10 10 11 11 11 11 11 11 11 10 10 9 6 6 6 4 3 3 2 3 3 3 4 5 7 8 8 8 8 9 10 11 12 12
16 16 16 16 17 18 20 21 22 22 22 22 22 22 22 23 22 22 22 21 21 20 20 20 21 23 24 25 24 24 23 22 21 20 21 21 21 23 22 21 19 16 14 12 11 9 9 9 10 10 10 10 11 11 11 12 12 12 12 12 11 11 10 7 6 7 5 4 3 3 3 3 3 4 4 6 7 8 8 7 8 9 10 11 12
15 15 15 16 17 19 20 21 22 22 22 22 22 22 22 22 21 20 20 20 19 18 18 19 20 22 23 24 24 24 23 21 20 21 23 23 23 24 25 23 20 17 15 13 12 11 10 10 11 11 11 11 11 12 12 13 13 13 13 12 12 12 10 8 7 8 6 5 4 4 4 4 4 4 4 5 6 7 8 8 8 8 9 10 11
14 14 15 16 17 18 19 20 21 21 20 20 20 20 20 19 18 19 19 18 17 16 16 18 19 21 22 23 22 22 22 22 23 23 24 25 26 28 29 26 20 16 14 14 13 12 12 12 12 12 12 12 12 13 14 14 14 14 14 13 13 12 11 8 7 9 8 6 6 5 4 4 4 4 4 4 5 6 7 8 8 8 8 9 10
13 13 14 15 16 16 17 18 19 19 18 17 17 18 18 18 19 19 19 17 16 16 17 18 19 20 21 21 21 20 22 24 26 27 26 26 29 30 28 23 18 15 14 14 14 14 13 12 11 12 12 12 13 14 15 16 15 15 15 14 14 13 11 9 8 10 10 7 7 7 6 5 4 4 4 5 5 5 6 7 8 8 8 8 9
14 14 14 14 15 16 17 18 18 18 17 16 17 18 19 20 21 20 18 17 17 18 19 18 18 20 20 21 20 20 22 23 27 31 30 29 30 28 22 18 15 14 14 14 14 13 13 12 11 12 13 13 14 15 17 17 16 16 16 15 15 13 11 10 10 11 11 9 9 8 7 7 6 5 5 5 5 5 6 6 7 8 8 8 9
15 14 14 15 16 17 17 18 18 18 18 19 20 21 21 21 21 20 19 19 19 18 18 18 19 20 19 19 19 20 21 22 28 33 32 30 28 22 16 14 14 14 14 14 13 12 12 12 12 12 14 14 15 16 17 17 17 17 17 16 16 14 12 11 11 11 12 11 10 9 9 8 7 6 5 5 5 5 6 6 7 7 8 9 9
15 15 15 17 17 16 16 17 18 19 19 20 20 20 21 21 21 21 20 19 18 17 17 19 21 21 20 19 17 17 18 21 29 31 26 25 22 17 13 13 13 14 14 13 13 12 12 12 12 13 15 15 16 16 17 17 17 17 18 17 16 15 13 13 12 13 13 12 11 11 10 9 8 7 7 6 5 5 5 6 6 7 8 9 9
16 16 17 19 18 16 16 17 18 19 19 19 19 19 21 22 22 21 21 19 17 17 18 21 22 20 19 17 15 14 16 21 26 24 20 18 16 13 13 13 13 13 13 14 14 13 13 13 13 14 16 16 16 17 17 17 17 17 18 18 17 16 14 14 14 14 14 13 12 12 11 10 10 9 8 7 6 6 6 6 6 7 8 8 9
17 17 19 21 20 18 18 18 18 19 19 19 19 20 20 21 21 21 19 17 16 16 18 21 20 17 15 13 13 14 15 17 18 17 16 13 11 11 12 12 12 12 13 14 14 15 14 13 14 15 16 16 16 17 17 17 17 18 18 18 18 16 14 15 15 16 15 14 13 13 13 12 11 10 9 8 8 7 7 7 7 8 8 8 9
19 18 19 22 21 19 18 17 18 19 19 19 19 18 18 19 19 17 15 13 12 13 16 18 16 14 11 9 10 12 10 10 11 13 12 9 8 9 11 11 12 13 13 14 14 14 14 13 14 14 15 15 16 17 17 17 17 18 18 18 19 17 14 15 16 17 17 16 15 15 14 13 13 12 11 11 10 9 8 8 8 8 9 9 10
21 20 20 20 19 18 18 18 19 20 20 19 18 17 18 17 14 12 12 11 9 10 13 14 14 12 9 8 8 7 6 6 7 7 7 6 7 9 11 12 14 14 14 13 11 10 11 11 12 13 13 14 16 17 18 17 17 18 18 19 19 18 15 15 17 18 18 17 17 16 15 15 15 14 13 13 12 11 10 10 10 10 10 11 11
23 22 19 19 18 17 18 20 20 20 20 20 18 18 18 14 10 10 11 9 8 9 10 10 10 9 7 7 7 6 5 5 5 5 5 7 9 10 11 12 13 13 13 12 11 9 8 8 9 10 11 13 15 17 17 17 17 17 18 19 19 18 17 16 17 19 18 17 18 18 17 17 17 17 16 15 15 13 12 12 12 12 11 12 12
23 21 18 18 19 17 17 18 19 19 20 20 19 18 14 11 9 9 9 7 7 8 9 8 7 7 7 8 8 7 6 6 6 6 7 9 9 9 10 10 10 11 12 12 11 10 9 8 9 8 9 12 15 17 17 16 16 17 17 17 18 19 18 17 17 17 17 18 19 19 19 18 18 18 18 17 17 15 14 14 13 13 13 13 13
21 20 18 18 19 18 18 18 18 19 20 20 19 16 12 11 9 9 8 8 8 10 10 8 5 5 6 8 9 8 6 6 6 6 7 7 6 6 7 7 8 9 10 10 9 9 9 10 11 10 10 11 13 16 16 16 16 15 15 15 17 17 17 18 17 17 18 19 20 20 19 19 19 19 19 18 17 16 16 15 15 14 14 13 13
19 18 16 17 19 19 19 18 18 18 19 19 17 13 12 11 9 10 10 10 10 8 7 5 4 5 6 6 5 5 4 4 4 4 5 5 4 5 5 5 6 7 8 7 7 7 8 9 10 10 10 11 11 13 15 17 16 14 13 14 15 15 16 16 17 18 19 20 20 19 19 18 18 19 18 18 17 17 16 15 15 14 14 14 14
17 15 15 17 18 19 17 16 15 16 16 15 13 11 12 12 11 11 10 8 7 6 5 7 8 7 4 1 0 1 2 3 3 4 5 5 5 5 5 4 4 5 5 5 5 6 6 7 8 8 9 11 11 12 14 16 15 13 13 15 15 16 16 15 16 17 17 17 18 18 19 18 18 17 17 17 17 17 16 16 15 14 14 14 14
16 15 16 18 17 17 16 15 15 15 15 13 13 12 12 12 11 10 8 6 7 8 9 9 7 5 2 1 1 1 2 3 3 5 5 5 4 5 4 4 3 3 4 4 4 5 5 5 5 5 8 10 10 11 13 15 14 12 12 14 14 15 16 15 14 14 13 13 14 15 16 16 16 16 16 16 16 16 16 16 15 14 14 14 14
18 16 18 18 16 16 15 14 15 15 15 14 12 12 12 13 12 9 7 7 8 8 7 6 4 3 2 1 2 3 2 3 5 5 5 4 3 4 3 3 2 2 3 4 4 5 5 4 4 4 6 8 9 10 11 12 13 12 11 12 13 13 14 13 12 12 10 10 11 12 12 11 12 13 15 16 16 16 16 16 15 15 15 15 15
19 18 19 19 16 15 14 13 14 14 13 11 11 11 12 13 9 6 6 7 7 6 5 4 4 4 3 3 4 4 3 3 5 5 4 3 3 2 2 2 2 1 2 3 4 5 5 4 4 4 5 7 8 8 9 10 11 11 11 10 12 12 10 9 10 10 9 8 8 9 10 10 11 12 13 14 15 15 15 15 14 15 15 15 15
20 18 18 19 16 14 13 11 12 13 11 9 10 11 11 9 5 4 6 7 5 4 4 5 6 6 5 5 5 4 2 4 5 5 4 4 4 3 2 2 2 1 2 3 4 4 4 4 4 4 4 5 5 6 7 9 10 10 10 10 10 10 9 8 8 7 7 6 6 7 9 10 11 12 13 13 13 13 13 13 14 14 15 15 15
20 18 18 18 15 13 12 10 11 12 10 9 9 10 9 7 4 4 6 6 6 6 8 8 7 7 6 5 5 4 3 5 6 5 4 4 4 3 2 1 1 1 2 2 3 3 3 3 4 4 4 3 4 5 5 7 8 9 9 9 8 7 7 8 7 6 6 5 5 7 9 10 12 13 13 13 13 13 13 13 13 14 15 15 15
21 20 19 16 14 14 14 12 11 10 9 8 9 9 8 6 4 3 5 8 9 9 9 8 8 8 7 6 5 4 4 5 5 5 5 5 4 4 3 1 1 1 2 2 3 3 3 3 4 4 5 4 3 1 3 4 5 8 9 9 8 6 5 8 8 7 5 5 6 7 8 9 10 11 12 13 13 13 13 14 14 14 14 15 15
23 24 23 19 16 16 16 13 11 9 8 7 7 8 6 5 4 4 5 6 7 8 8 9 10 8 6 5 4 3 3 3 4 5 6 6 5 4 3 2 1 2 2 2 3 3 3 4 4 4 5 4 1 2 2 4 5 7 7 6 7 7 6 8 9 7 5 5 6 7 8 8 8 9 10 11 11 11 12 12 13 13 13 14 14
25 27 27 22 18 17 16 14 12 10 9 6 5 6 6 5 5 5 5 5 7 9 10 11 9 6 4 3 3 3 4 5 5 5 6 6 6 5 4 3 2 2 2 2 2 2 2 4 4 4 4 4 2 2 3 5 5 6 5 4 6 8 7 7 9 8 5 4 6 7 7 7 7 7 8 9 10 9 10 10 11 11 12 12 12
27 30 28 21 17 16 16 15 13 12 11 8 6 8 8 7 7 8 8 9 10 12 11 10 7 5 5 5 4 4 4 5 5 5 6 6 6 6 5 3 2 2 2 2 2 2 2 3 4 4 5 4 3 3 4 5 5 5 5 5 6 7 6 6 7 7 4 2 5 6 5 5 5 6 6 7 8 8 8 8 8 9 10 10 10
30 30 26 20 16 15 16 16 15 13 12 10 9 9 9 9 9 9 10 11 12 12 12 10 8 7 7 7 7 6 6 6 6 6 6 6 6 6 4 3 2 2 2 2 2 2 2 3 4 4 5 5 5 4 4 5 6 5 5 6 6 6 6 8 7 7 5 3 5 5 4 4 5 5 5 5 6 6 6 6 6 7 8 9 9
30 29 24 19 14 14 15 16 16 15 12 11 11 10 10 10 11 12 12 13 15 15 13 11 10 9 9 9 8 7 7 7 7 6 6 6 6 5 4 3 3 3 2 2 2 2 3 3 4 5 5 5 5 5 4 6 7 6 6 7 8 6 7 9 8 7 6 5 6 6 5 5 5 5 5 5 5 4 5 5 6 6 6 7 8
27 25 22 17 14 14 16 16 14 14 13 12 12 11 11 12 13 14 14 15 17 16 13 12 11 10 10 10 9 8 7 7 7 6 6 5 5 5 4 3 3 2 2 2 3 3 3 3 4 4 5 5 5 5 5 6 8 7 7 9 9 8 8 8 7 6 5 4 5 5 5 5 5 4 5 5 4 4 5 6 6 6 7 7 7
25 23 20 18 16 16 18 17 14 14 14 13 12 12 13 14 14 15 15 16 18 15 13 14 13 12 12 11 10 8 7 7 7 6 6 5 4 4 4 3 2 2 2 2 2 3 3 4 4 4 5 6 6 6 5 6 8 8 8 8 9 9 8 8 8 7 5 4 4 4 5 5 5 5 5 5 5 5 6 6 7 8 8 8 8
25 22 20 18 15 13 14 15 14 14 14 12 11 13 15 15 14 14 14 15 16 16 16 16 15 14 13 12 11 9 7 6 6 6 5 5 4 3 3 3 3 3 3 2 3 3 3 4 5 5 6 6 7 7 7 7 8 9 9 9 9 9 9 10 10 9 7 6 6 6 5 5 5 6 6 6 6 6 6 7 8 9 9 9 9
26 24 24 22 17 14 14 13 14 14 15 13 12 13 13 12 12 13 14 14 16 19 19 17 16 14 13 12 11 9 7 5 5 5 4 4 4 3 3 3 4 5 5 5 6 5 5 5 5 6 7 8 8 8 8 8 9 9 9 10 10 10 10 10 10 10 10 9 8 8 7 6 7 7 7 8 8 7 8 9 9 10 10 10 10
27 27 27 24 20 18 16 15 14 14 14 13 13 13 11 9 10 12 13 15 17 19 19 17 15 13 12 11 9 8 6 5 4 3 3 3 4 4 4 4 4 5 6 7 8 9 9 8 7 8 9 9 9 9 9 9 9 9 10 10 10 10 11 10 10 10 11 11 10 10 9 9 9 9 8 9 9 9 10 11 11 11 11 11 12
26 26 26 23 19 16 15 14 13 11 10 11 12 12 10 10 12 12 13 13 13 15 16 15 13 12 10 9 8 7 6 5 4 3 3 4 5 5 6 6 6 6 7 8 9 10 11 11 10 11 11 10 10 11 10 10 10 10 10 11 11 11 11 10 10 11 12 12 12 12 11 11 10 10 9 8 10 11 12 12 12 12 12 12 13
20 20 21 18 16 14 13 12 11 10 9 8 8 9 10 12 13 13 13 12 12 14 15 14 11 10 9 9 8 7 5 3 3 4 5 5 6 6 7 7 7 8 9 10 10 11 11 12 12 12 13 12 12 12 11 11 11 11 11 12 12 11 11 11 11 12 12 12 12 12 11 11 11 10 9 9 10 12 12 12 12 13 13 14 14
16 13 12 12 11 11 11 10 10 8 7 6 4 4 6 8 11 12 11 9 10 12 13 11 9 8 8 9 8 7 5 3 4 5 5 6 7 8 9 9 8 8 9 10 11 12 13 12 12 12 13 14 14 13 13 12 12 12 12 12 12 12 11 11 12 12 12 11 11 11 11 10 10 10 11 11 12 13 13 13 13 14 14 15 15
21 19 18 17 14 10 9 8 8 7 7 5 3 2 5 6 6 7 8 7 8 9 10 9 8 7 8 8 8 7 5 4 5 5 5 6 7 7 8 8 8 7 8 8 9 11 12 12 12 12 12 13 14 14 14 13 12 12 12 12 12 11 11 11 12 13 12 11 11 11 11 10 10 10 11 12 13 13 13 13 13 14 14 15 15
Wind_Direction
272 272 274 276 280 283 285 287 290 293 296 298 299 301 305 310 313 312 310 309 309 310 312 313 311 309 308 306 301 295 289 286 285 288 294 301 305 305 305 307 309 308 310 312 313 312 311 309 307 305 303 299 294 291 289 282 279 278 276 271 265 261 257 252 242 226 214 207 201 190 181 184 184 182 177 172 170 168 163 157 153 154 155 150 147
273 277 276 277 281 283 286 287 290 292 294 296 298 302 306 310 310 308 305 305 306 309 311 310 308 307 307 305 301 297 293 289 287 288 294 301 304 304 305 307 308 308 310 312 312 312 310 307 305 303 301 296 292 289 288 282 281 281 279 276 270 262 257 252 245 228 210 205 203 194 181 181 185 184 180 174 172 168 164 160 157 159 161 161 160
277 279 274 276 280 283 285 287 289 291 293 294 298 303 307 308 306 303 301 303 306 308 308 306 306 306 307 305 301 298 296 293 290 291 295 300 302 303 307 308 309 310 311 312 310 310 307 303 301 299 296 293 290 288 287 286 286 285 285 285 278 270 266 261 255 239 215 202 201 197 184 181 184 184 182 177 174 170 166 161 160 163 166 168 167
277 277 273 275 278 282 284 286 288 289 291 294 300 304 304 303 301 300 300 303 306 306 306 306 306 306 306 304 301 299 298 297 295 294 296 298 299 303 309 309 310 311 311 311 310 307 303 299 295 292 291 290 289 288 288 290 291 289 291 289 281 277 275 268 264 248 224 204 200 200 187 180 184 183 183 180 176 173 167 164 163 165 168 172 168
273 271 275 277 278 282 284 285 287 288 291 296 301 301 300 298 298 298 300 303 304 304 304 306 306 305 304 302 301 299 298 298 298 297 297 295 296 303 307 309 310 310 309 310 309 306 301 296 293 290 289 288 288 288 289 291 289 288 288 287 281 276 274 268 257 241 221 208 201 204 191 179 184 184 184 182 178 175 170 166 165 166 170 174 168
267 268 275 278 279 283 284 284 286 288 293 297 298 297 296 296 297 298 300 300 300 301 303 306 305 304 303 300 299 298 296 295 297 297 296 292 293 300 305 307 307 307 308 307 307 304 298 293 292 289 287 287 287 287 288 287 282 281 282 281 278 276 277 272 259 244 219 208 200 203 193 180 185 184 185 185 181 177 173 169 166 168 171 174 170
266 269 275 278 280 281 281 282 285 289 292 295 295 294 294 296 297 297 298 297 297 300 302 304 303 302 300 298 296 293 291 291 294 297 295 289 292 299 301 304 304 304 305 305 304 300 296 291 291 288 286 288 288 286 287 282 273 272 274 278 280 279 277 278 274 258 232 216 205 200 190 184 188 185 186 188 185 180 176 172 169 170 172 173 172
267 269 274 276 277 277 277 280 284 289 292 293 293 293 295 295 295 296 294 295 296 299 300 300 298 298 297 294 291 287 286 288 293 296 294 289 291 296 298 300 301 301 302 302 301 298 296 291 288 286 286 288 287 286 285 277 269 267 271 278 279 277 278 286 284 266 247 225 209 195 188 192 191 185 186 189 189 184 180 176 172 172 173 173 172
266 269 272 273 273 273 276 280 286 290 292 293 293 293 294 293 293 292 292 294 296 298 297 294 293 293 293 290 286 283 282 285 290 294 293 289 291 293 296 297 297 297 299 300 299 299 296 291 288 286 287 287 285 285 282 274 270 269 270 275 274 272 274 278 271 264 245 224 216 195 195 200 195 188 186 189 192 189 185 181 177 176 177 176 175
266 270 270 270 271 273 278 284 289 291 293 293 292 292 291 290 290 290 291 294 295 295 292 288 286 287 288 286 284 281 280 281 286 291 291 289 289 291 293 293 291 292 296 297 297 297 293 291 290 288 289 288 283 279 276 273 272 270 265 264 265 263 259 250 254 258 241 220 213 202 204 203 198 192 187 189 193 191 190 187 183 181 181 181 180
267 269 268 270 273 278 284 288 290 291 291 290 289 289 288 288 289 289 291 293 292 289 287 284 282 283 284 284 283 280 278 279 283 287 287 287 286 287 289 287 284 287 293 295 294 292 292 293 292 290 289 285 278 273 270 270 270 266 261 257 256 255 247 239 236 243 244 214 192 203 206 204 201 196 190 190 193 192 192 192 190 187 186 186 185
266 267 268 273 278 282 286 288 288 287 287 287 286 286 286 287 289 290 291 290 287 284 282 281 280 281 282 282 281 279 279 280 283 283 282 282 281 283 285 282 281 286 293 293 291 290 290 290 289 288 285 280 275 271 267 266 265 262 258 253 252 251 246 245 241 239 237 204 200 209 200 201 203 200 195 193 193 193 193 194 196 193 191 190 189
264 267 271 275 280 281 283 284 282 282 282 282 283 284 285 287 289 290 289 286 282 280 279 278 277 278 279 279 278 278 278 279 281 281 277 276 278 280 279 278 280 286 290 289 290 289 288 287 284 284 281 276 273 271 268 265 262 258 256 252 250 249 246 246 247 241 229 205 212 211 193 196 200 201 200 199 196 194 193 194 197 198 197 195 192
264 269 275 277 279 279 279 279 278 278 277 278 280 282 285 288 290 288 285 281 279 277 277 275 274 275 275 275 275 276 277 277 279 279 274 271 274 276 277 277 278 282 286 286 287 285 285 284 279 276 275 273 272 271 269 266 261 258 256 252 249 247 244 242 248 247 229 209 213 205 195 188 193 198 200 204 202 197 196 196 197 199 200 199 196
269 273 275 276 276 276 277 276 276 276 277 279 282 285 288 289 288 284 281 279 277 276 274 273 272 272 272 272 273 273 273 275 280 282 275 268 268 272 275 275 273 276 280 281 280 279 279 277 271 269 268 270 270 269 269 267 263 259 256 252 250 248 244 239 249 251 230 213 211 214 206 187 188 193 195 204 206 202 200 199 200 201 202 201 200
274 273 272 273 274 275 275 275 275 277 280 283 286 289 289 288 284 281 280 278 278 276 273 272 272 271 270 270 270 270 269 270 277 280 274 268 266 268 270 269 266 268 272 274 275 274 273 271 270 269 268 268 268 268 268 266 262 259 255 252 251 249 246 238 245 251 241 227 217 220 218 195 188 191 192 199 204 205 204 203 203 204 205 203 203
275 272 270 271 272 274 275 277 280 281 284 286 289 288 286 284 282 283 282 281 280 276 272 272 272 270 269 269 268 269 271 272 272 270 270 269 267 266 265 263 261 263 267 270 274 272 272 274 274 273 272 271 270 269 268 263 259 256 252 250 250 250 246 237 242 251 248 237 227 222 225 216 199 196 194 197 200 203 206 206 208 208 209 207 205
276 272 270 270 274 278 281 284 286 286 287 288 288 284 281 280 283 287 286 283 278 271 271 273 273 271 270 271 272 273 275 275 272 270 270 270 269 266 263 261 258 260 265 271 275 276 278 279 279 279 277 274 270 268 265 261 255 253 250 247 248 248 245 236 240 251 249 243 238 229 224 228 216 205 199 199 201 202 206 208 211 213 214 212 209
268 266 267 271 278 281 283 286 287 287 287 287 285 280 278 280 285 287 284 278 270 269 275 275 273 273 272 273 273 274 275 274 274 274 274 272 269 266 264 263 259 259 267 274 279 281 282 282 282 281 277 272 267 263 260 258 253 251 250 246 245 245 243 234 233 245 249 245 242 237 229 229 227 220 207 204 207 206 209 209 212 215 218 218 215
261 263 271 275 278 279 281 283 284 283 281 282 283 282 280 283 285 281 274 268 268 273 276 272 269 272 272 270 270 271 276 281 280 275 270 267 266 266 266 265 262 265 271 275 277 278 280 281 279 276 271 267 263 259 257 257 254 252 251 248 245 244 240 233 231 240 248 245 241 244 239 230 228 229 220 211 211 213 214 215 216 217 220 222 221
263 267 273 275 274 276 281 283 284 280 280 282 284 283 282 283 282 275 270 268 270 273 270 265 264 266 266 267 271 277 283 287 282 275 269 264 263 264 262 261 264 266 268 268 268 270 273 274 272 269 267 264 261 259 258 258 257 255 254 250 246 244 240 235 232 236 243 245 244 247 245 238 234 234 231 223 216 218 221 220 223 223 224 225 225
260 263 267 270 272 276 282 283 283 281 283 285 283 282 282 284 280 275 274 272 272 271 266 260 259 261 262 267 274 280 282 280 279 277 270 264 260 256 257 263 264 262 261 261 262 263 263 264 264 263 263 263 263 261 260 260 259 258 256 254 250 245 239 235 234 234 238 242 246 248 246 244 242 239 239 236 227 222 224 226 228 230 231 231 231
256 260 264 266 268 275 279 279 280 281 284 283 281 282 284 285 280 276 277 276 274 271 265 258 256 260 268 276 281 281 279 280 281 273 260 259 257 257 267 271 270 269 270 270 270 268 263 258 256 256 258 261 263 263 263 262 261 260 259 257 252 247 239 234 235 237 238 239 243 247 247 246 245 244 245 244 239 232 228 230 233 235 236 236 237
252 256 263 264 265 272 277 278 281 282 283 281 281 284 285 285 282 280 280 278 274 268 259 254 255 264 277 285 288 287 284 283 277 259 250 255 259 268 278 278 281 283 283 285 284 279 272 266 259 255 254 256 259 263 264 264 263 261 261 259 253 249 240 233 235 238 240 239 241 245 247 248 247 247 248 247 245 239 235 233 235 236 238 238 239
251 254 262 264 264 270 275 280 284 284 285 285 285 286 285 285 285 286 285 280 272 259 248 246 252 265 276 280 287 290 286 280 267 253 250 252 264 279 284 285 286 283 285 290 290 283 274 271 266 259 256 255 257 259 260 262 262 261 261 258 254 251 241 231 233 237 241 241 242 245 248 251 251 250 250 249 246 240 238 237 237 237 237 238 239
252 258 265 268 270 275 281 290 292 289 289 287 286 287 288 289 293 292 285 276 263 252 245 244 255 265 266 268 282 288 284 286 274 260 255 263 284 293 293 291 286 282 284 288 294 289 273 266 262 258 259 260 259 258 257 257 257 258 257 255 253 251 240 229 230 233 238 241 243 246 247 250 252 251 250 249 249 244 241 239 239 239 237 237 237
255 261 269 277 281 284 291 294 292 288 289 287 286 290 291 295 303 291 279 269 254 252 247 250 266 269 259 260 277 292 298 303 289 278 286 296 299 298 297 293 289 285 282 286 295 293 273 259 250 250 255 258 258 255 253 252 252 252 252 253 254 253 242 231 233 235 236 240 243 246 246 246 248 249 248 247 250 249 246 242 241 240 238 238 237
260 262 267 278 282 284 288 288 285 286 288 287 287 292 291 291 294 279 269 264 249 250 251 262 275 265 256 269 290 297 297 295 287 290 299 302 300 296 293 290 291 286 280 284 290 287 275 261 249 245 248 251 252 249 248 245 244 246 247 250 253 254 243 228 232 240 241 241 243 246 247 246 246 247 249 249 249 250 249 246 243 242 242 241 240
265 266 270 279 281 281 282 283 285 286 287 287 288 289 286 284 281 269 267 267 264 265 263 264 265 259 271 291 299 298 293 291 292 299 304 305 304 298 293 290 288 280 277 278 282 281 272 263 254 249 250 251 248 243 242 238 236 238 240 247 249 252 247 229 227 237 239 240 242 245 247 246 247 249 251 253 253 253 253 251 248 247 246 246 245
271 275 280 279 278 278 279 281 283 283 282 283 286 286 284 286 282 275 277 278 277 271 258 251 268 286 296 299 298 301 307 305 308 307 300 298 296 294 292 288 283 277 275 274 276 274 265 260 257 253 252 251 247 241 239 237 237 234 235 244 243 245 250 236 227 229 230 234 237 240 242 244 246 248 252 255 258 258 257 257 257 254 251 249 249
279 283 282 274 273 275 277 278 276 276 278 282 285 284 282 283 283 281 283 284 272 259 263 275 282 287 289 289 1 328 325 323 315 296 285 282 282 277 273 275 285 286 283 282 276 264 262 263 263 257 251 249 248 246 241 236 235 233 235 241 240 242 245 237 229 229 231 232 232 234 236 237 240 244 249 255 259 261 261 259 258 256 253 251 250
285 283 277 272 275 278 277 274 267 266 272 281 284 281 278 274 273 276 281 276 257 261 276 278 273 262 239 104 74 317 292 284 268 267 269 269 272 267 261 267 284 290 286 285 272 260 264 270 270 262 252 252 250 248 245 236 231 230 234 235 237 241 241 240 236 232 237 239 237 238 236 237 239 243 248 253 258 261 262 260 256 253 251 250 250
281 278 275 274 278 277 272 265 261 262 268 278 283 278 270 265 264 270 273 264 261 268 267 261 252 235 239 327 302 278 259 246 243 254 262 261 270 270 266 280 296 309 300 290 279 267 260 251 254 256 254 256 252 251 251 241 229 227 230 231 234 240 240 244 244 237 243 248 248 247 243 245 247 248 249 252 255 257 258 258 254 251 249 249 249
276 275 274 274 273 268 263 261 262 267 270 275 280 276 267 263 262 268 275 279 279 274 260 254 246 236 259 276 257 247 230 231 249 265 279 290 310 316 295 304 336 353 312 292 284 269 260 249 242 252 257 258 257 259 257 243 233 233 235 236 234 233 234 239 240 238 243 249 250 249 246 249 248 246 245 245 249 252 254 254 252 250 248 247 248
274 273 271 270 270 263 255 253 258 265 271 277 280 275 268 265 264 278 295 300 291 279 285 283 266 259 265 258 245 242 227 240 259 275 293 305 324 337 340 358 21 357 293 278 270 261 265 266 258 261 263 261 266 271 257 235 237 242 237 236 230 222 225 232 229 223 224 231 240 244 244 244 242 239 239 242 245 247 248 250 251 250 249 248 248
272 271 266 265 267 258 240 240 254 261 269 280 281 272 269 272 269 287 296 284 267 272 284 279 270 270 264 253 248 243 235 250 265 277 285 288 298 305 313 350 6 336 306 288 276 269 280 280 264 262 269 283 295 280 246 222 233 241 235 233 223 212 228 237 229 222 223 231 239 242 245 246 243 241 241 243 244 245 247 248 249 251 252 252 252
270 267 261 257 257 248 234 238 253 259 264 271 276 270 271 276 255 260 277 262 259 268 271 269 271 270 262 255 248 236 234 250 267 277 277 277 278 280 277 268 286 302 309 306 299 295 303 300 275 266 275 298 319 255 211 237 236 229 232 229 213 208 243 253 245 244 241 236 242 247 252 254 251 249 248 246 246 249 249 248 250 252 254 256 256
268 264 258 246 242 242 237 242 253 257 255 258 272 267 261 262 234 240 264 250 252 266 268 271 274 270 263 259 259 260 264 270 281 283 283 286 284 281 275 259 252 256 269 298 311 310 304 300 297 292 289 295 299 155 206 293 266 234 233 218 214 227 256 264 252 247 247 239 246 255 257 261 260 255 251 247 247 246 245 247 251 254 257 258 257
267 262 255 241 233 240 241 246 255 257 253 254 263 247 244 256 239 236 246 241 259 276 278 277 279 284 289 294 300 304 302 302 299 292 292 296 294 289 286 275 249 246 262 298 322 325 304 295 304 317 310 299 260 210 248 283 274 253 243 214 231 245 250 255 240 234 247 247 251 256 255 260 259 252 247 245 244 241 241 247 253 257 258 258 258
262 259 255 244 238 241 239 243 251 256 256 258 259 243 245 257 247 240 243 251 269 282 283 285 293 303 306 308 312 310 306 304 300 299 300 300 303 304 302 295 271 269 287 297 316 320 304 293 305 324 322 309 285 266 257 262 260 251 243 232 247 260 259 257 242 237 254 276 258 256 251 252 249 246 244 242 241 240 243 249 253 255 256 258 259
257 257 258 255 251 240 234 238 244 253 261 261 264 258 255 260 259 256 255 260 273 284 288 293 298 300 299 298 296 296 297 298 298 302 309 309 311 313 316 318 311 302 290 290 308 306 301 299 303 318 327 318 300 291 270 264 267 257 259 258 254 258 257 260 260 252 255 265 262 256 254 254 244 240 239 238 240 239 242 248 251 255 256 260 258
254 258 261 261 257 240 239 248 246 251 263 265 267 267 263 263 264 267 268 270 276 284 290 294 296 295 293 290 287 290 292 297 302 304 306 305 308 314 323 335 332 322 313 307 302 294 293 297 303 313 323 319 298 289 278 279 282 268 260 264 263 255 244 253 262 256 253 264 271 270 270 263 250 245 242 242 242 234 235 241 243 247 251 255 253
253 258 262 265 266 256 257 264 253 250 260 264 267 267 265 262 261 263 266 271 277 284 289 288 287 285 283 283 284 288 291 293 296 298 299 297 300 310 318 329 333 333 340 322 302 296 294 292 298 304 310 306 292 286 280 281 285 273 255 259 268 263 248 252 260 259 264 277 281 281 276 268 262 255 241 235 232 226 229 232 231 232 238 244 245
259 262 265 270 276 273 270 269 259 252 254 258 265 268 268 266 264 265 268 273 274 275 277 275 276 279 282 286 291 293 296 297 299 300 300 298 298 299 299 304 313 323 334 325 306 301 304 302 298 293 293 294 292 291 286 277 281 280 271 268 273 272 265 268 272 272 275 278 280 277 269 268 264 247 226 220 218 219 225 228 231 237 244 249 249
262 266 264 267 275 272 265 264 257 246 243 250 263 267 270 274 276 277 280 279 270 264 268 270 273 278 284 290 295 298 302 306 312 317 314 311 307 298 295 293 287 286 285 287 294 303 316 316 310 302 293 290 290 290 286 278 278 281 280 277 275 273 271 271 274 276 272 273 278 272 262 261 254 237 228 233 232 227 232 238 240 244 251 255 257
258 260 258 257 262 260 255 257 253 243 238 241 251 261 270 281 286 284 283 275 265 265 268 269 270 276 283 288 290 293 296 297 304 319 328 330 331 327 315 303 292 287 280 274 275 283 297 308 313 312 301 294 290 287 284 278 276 275 274 272 271 271 268 266 267 268 268 271 273 270 266 262 258 252 247 250 248 242 244 248 249 253 258 263 264
254 258 256 254 256 260 261 260 257 252 248 245 248 257 265 274 275 272 270 265 262 266 266 265 268 273 277 279 279 281 279 272 274 302 340 344 343 340 329 317 305 297 288 281 276 274 277 284 298 304 300 297 292 285 284 279 273 268 262 263 267 268 266 264 264 262 264 268 268 269 269 266 263 259 252 253 256 256 254 255 259 263 266 270 271
255 258 256 255 258 262 265 262 262 266 270 269 264 262 260 258 254 253 258 261 261 262 261 261 264 268 271 271 269 268 264 266 279 310 340 338 331 323 315 310 304 298 293 288 282 277 273 274 283 291 291 294 291 286 284 280 273 266 259 258 261 262 260 260 260 258 257 258 260 265 267 266 264 258 253 256 263 265 264 265 268 269 269 270 272
256 258 252 258 264 262 261 256 258 269 275 281 279 270 265 260 258 261 266 267 263 259 256 256 256 260 264 265 263 259 256 271 301 319 325 318 309 300 293 290 288 287 286 284 283 281 277 274 276 281 285 287 287 284 282 278 273 267 262 259 259 258 256 255 256 255 253 253 258 262 262 263 260 254 255 263 267 269 272 275 276 275 274 273 272
251 255 250 273 282 268 258 247 245 255 258 259 268 278 278 272 273 274 269 267 271 267 260 258 259 260 262 262 259 256 259 279 300 306 307 304 299 290 282 277 273 271 271 273 276 277 277 275 274 276 279 280 280 279 276 273 270 265 262 261 259 257 252 249 250 249 250 254 259 259 254 254 253 250 256 264 267 269 271 274 274 274 274 274 273
256 259 265 285 291 266 244 236 237 243 240 228 219 311 324 308 288 254 240 263 285 277 265 262 263 260 261 261 260 262 269 282 287 286 296 309 311 304 294 286 279 272 266 265 267 270 273 275 276 276 276 275 274 273 271 268 265 262 262 260 256 252 247 243 243 245 250 255 256 252 247 247 249 250 257 264 268 270 271 270 270 270 270 270 270
Height
5867 5868 5868 5868 5868 5868 5867 5867 5867 5866 5866 5866 5865 5865 5865 5864 5864 5863 5862 5862 5861 5861 5861 5860 5860 5859 5859 5858 5858 5857 5857 5857 5857 5856 5856 5855 5855 5855 5854 5854 5853 5853 5852 5852 5852 5851 5851 5850 5850 5849 5849 5848 5848 5848 5848 5847 5847 5847 5848 5848 5848 5848 5848 5848 5848 5848 5848 5848 5848 5848 5849 5849 5849 5849 5849 5849 5850 5850 5850 5850 5851 5852 5852 5852 5853
5865 5866 5866 5866 5866 5866 5866 5865 5865 5865 5864 5864 5864 5863 5863 5862 5862 5861 5860 5860 5860 5859 5859 5859 5858 5858 5857 5857 5856 5856 5856 5856 5855 5855 5855 5854 5854 5854 5853 5853 5853 5852 5852 5851 5851 5850 5850 5849 5849 5848 5848 5848 5847 5847 5847 5847 5847 5847 5847 5847 5847 5848 5848 5848 5848 5848 5847 5848 5848 5848 5849 5849 5849 5849 5849 5849 5849 5850 5850 5850 5851 5852 5852 5853 5853
5863 5864 5864 5864 5864 5864 5864 5864 5863 5863 5863 5862 5862 5862 5861 5860 5860 5859 5858 5858 5858 5858 5857 5857 5856 5856 5856 5855 5855 5855 5854 5854 5854 5854 5854 5853 5853 5853 5853 5852 5852 5851 5851 5850 5850 5849 5848 5848 5848 5847 5847 5847 5847 5846 5846 5846 5846 5847 5847 5847 5847 5847 5847 5847 5847 5847 5847 5847 5847 5848 5848 5849 5849 5849 5849 5849 5849 5849 5850 5850 5851 5852 5852 5853 5853
5861 5862 5862 5862 5862 5862 5862 5862 5862 5861 5861 5861 5860 5860 5859 5858 5858 5857 5857 5857 5856 5856 5856 5855 5855 5854 5854 5853 5853 5853 5853 5853 5853 5852 5852 5852 5852 5852 5852 5851 5851 5851 5850 5850 5849 5848 5847 5847 5847 5846 5846 5846 5846 5846 5846 5846 5846 5847 5847 5847 5847 5847 5847 5847 5847 5847 5847 5847 5847 5848 5848 5848 5849 5849 5849 5849 5849 5849 5850 5850 5851 5851 5852 5853 5853
5860 5860 5860 5860 5861 5861 5861 5860 5860 5859 5859 5859 5859 5858 5857 5857 5856 5856 5855 5855 5855 5854 5854 5854 5853 5852 5852 5852 5852 5851 5851 5851 5851 5851 5851 5851 5851 5851 5851 5850 5850 5850 5849 5849 5848 5847 5847 5846 5846 5846 5845 5845 5845 5845 5845 5846 5846 5846 5846 5846 5846 5846 5847 5847 5847 5847 5847 5847 5847 5847 5848 5848 5848 5849 5849 5849 5849 5849 5849 5850 5850 5851 5852 5853 5853
5858 5858 5859 5859 5859 5859 5859 5858 5858 5857 5857 5857 5857 5856 5856 5855 5855 5854 5854 5854 5853 5853 5853 5852 5852 5851 5850 5850 5850 5850 5849 5849 5849 5849 5849 5849 5849 5850 5849 5849 5849 5849 5848 5848 5847 5847 5846 5846 5845 5845 5845 5845 5845 5845 5845 5845 5845 5845 5845 5846 5846 5846 5846 5846 5846 5847 5847 5847 5847 5847 5847 5848 5848 5848 5849 5849 5849 5849 5849 5850 5850 5851 5852 5852 5853
5856 5857 5857 5858 5858 5858 5857 5856 5856 5856 5855 5855 5855 5854 5854 5853 5853 5853 5852 5852 5851 5851 5851 5851 5850 5849 5848 5848 5848 5848 5847 5847 5847 5847 5847 5848 5848 5848 5848 5848 5848 5847 5847 5847 5846 5846 5845 5845 5845 5844 5844 5844 5844 5844 5844 5845 5845 5845 5845 5845 5845 5846 5846 5846 5846 5846 5846 5847 5847 5847 5847 5848 5848 5848 5848 5849 5849 5849 5849 5849 5850 5851 5851 5852 5852
5854 5855 5855 5856 5856 5855 5854 5854 5854 5854 5853 5853 5853 5852 5852 5852 5851 5851 5850 5850 5850 5850 5850 5849 5848 5847 5847 5846 5846 5846 5846 5846 5846 5846 5846 5846 5847 5847 5847 5847 5846 5846 5846 5846 5846 5845 5845 5844 5844 5844 5843 5844 5844 5844 5844 5844 5844 5844 5844 5845 5845 5846 5846 5846 5846 5846 5846 5847 5847 5847 5847 5847 5848 5848 5848 5848 5849 5849 5849 5849 5850 5850 5851 5851 5852
5852 5853 5853 5853 5853 5852 5852 5852 5852 5851 5851 5851 5851 5850 5850 5850 5850 5849 5849 5848 5848 5848 5848 5847 5846 5846 5845 5844 5844 5844 5844 5844 5844 5845 5845 5845 5845 5845 5845 5845 5845 5845 5845 5845 5845 5845 5844 5844 5844 5843 5843 5843 5843 5843 5843 5843 5843 5844 5844 5845 5845 5845 5845 5846 5846 5846 5846 5847 5847 5847 5847 5847 5848 5848 5848 5848 5848 5849 5849 5849 5849 5850 5851 5851 5851
5850 5850 5851 5850 5850 5850 5850 5850 5850 5849 5849 5849 5849 5849 5848 5848 5848 5847 5847 5846 5846 5846 5845 5845 5844 5843 5843 5842 5842 5842 5843 5843 5843 5844 5843 5843 5843 5843 5843 5843 5843 5843 5843 5844 5844 5844 5844 5843 5843 5843 5843 5843 5843 5842 5843 5843 5843 5843 5844 5844 5844 5845 5845 5845 5845 5846 5846 5846 5847 5847 5847 5847 5847 5848 5848 5848 5848 5848 5848 5849 5849 5850 5850 5851 5851
5848 5848 5848 5848 5848 5848 5847 5847 5847 5847 5847 5847 5847 5847 5846 5846 5846 5845 5845 5844 5844 5843 5843 5842 5842 5841 5841 5841 5841 5841 5841 5841 5842 5842 5842 5842 5842 5842 5842 5841 5842 5842 5842 5843 5843 5843 5843 5843 5842 5842 5842 5842 5842 5842 5842 5842 5842 5842 5843 5844 5844 5844 5844 5845 5845 5846 5846 5846 5846 5847 5847 5847 5847 5847 5848 5848 5848 5848 5848 5849 5849 5849 5850 5851 5851
5846 5846 5846 5846 5845 5845 5845 5845 5846 5845 5845 5845 5845 5845 5844 5844 5844 5843 5843 5842 5841 5840 5840 5840 5840 5839 5839 5839 5839 5839 5839 5840 5841 5841 5841 5841 5841 5840 5840 5839 5840 5841 5841 5842 5842 5842 5842 5842 5842 5841 5841 5841 5841 5841 5841 5841 5841 5842 5842 5843 5843 5843 5844 5844 5845 5845 5846 5846 5846 5847 5847 5847 5847 5847 5847 5848 5848 5848 5848 5848 5849 5849 5850 5850 5851
5844 5844 5844 5844 5843 5843 5844 5844 5844 5843 5843 5843 5842 5842 5842 5842 5842 5841 5840 5839 5838 5838 5838 5838 5838 5837 5837 5837 5837 5837 5837 5838 5839 5839 5839 5839 5839 5839 5838 5838 5839 5840 5840 5841 5841 5841 5841 5841 5840 5840 5840 5840 5840 5840 5840 5840 5840 5841 5841 5842 5843 5843 5843 5844 5844 5845 5845 5846 5846 5846 5847 5847 5847 5847 5847 5848 5848 5848 5848 5848 5848 5849 5849 5850 5850
5842 5842 5842 5842 5842 5842 5842 5842 5841 5841 5840 5840 5840 5840 5840 5840 5839 5838 5837 5836 5836 5835 5835 5835 5835 5835 5835 5835 5835 5835 5836 5836 5837 5837 5838 5838 5838 5837 5837 5837 5838 5839 5839 5839 5839 5839 5839 5839 5839 5839 5839 5839 5839 5839 5839 5839 5839 5840 5840 5841 5842 5842 5843 5844 5844 5844 5845 5846 5846 5846 5846 5847 5847 5847 5847 5847 5848 5848 5848 5848 5848 5848 5849 5849 5850
5841 5841 5841 5840 5840 5840 5840 5839 5839 5839 5838 5838 5839 5839 5839 5838 5836 5835 5834 5834 5834 5833 5833 5833 5833 5833 5833 5833 5833 5833 5834 5835 5835 5836 5836 5836 5836 5836 5836 5837 5837 5837 5838 5838 5838 5838 5838 5838 5837 5837 5837 5838 5838 5838 5838 5838 5839 5839 5839 5840 5840 5841 5842 5844 5843 5844 5845 5845 5846 5846 5846 5846 5846 5847 5847 5847 5847 5847 5847 5848 5848 5848 5848 5849 5849
5840 5839 5839 5838 5838 5838 5837 5837 5837 5837 5837 5837 5837 5837 5836 5835 5833 5832 5832 5832 5832 5831 5831 5831 5831 5831 5831 5831 5831 5831 5832 5833 5834 5834 5834 5834 5834 5835 5835 5835 5836 5836 5836 5836 5837 5837 5836 5836 5836 5836 5836 5837 5836 5836 5837 5837 5837 5838 5838 5839 5839 5840 5842 5843 5843 5843 5844 5845 5845 5846 5846 5846 5846 5847 5847 5847 5847 5847 5847 5847 5847 5848 5848 5848 5848
5838 5837 5837 5836 5836 5836 5835 5835 5836 5836 5836 5835 5836 5835 5834 5832 5831 5831 5830 5830 5830 5829 5829 5829 5829 5828 5828 5828 5828 5829 5830 5831 5832 5831 5831 5832 5833 5833 5833 5834 5835 5835 5835 5835 5835 5835 5835 5835 5835 5835 5835 5836 5836 5835 5835 5836 5836 5836 5837 5837 5838 5839 5840 5842 5842 5842 5843 5844 5845 5845 5846 5846 5846 5846 5846 5847 5847 5847 5847 5847 5847 5847 5848 5848 5848
5835 5835 5835 5834 5834 5834 5834 5834 5835 5834 5834 5833 5833 5832 5831 5830 5829 5829 5828 5828 5827 5827 5827 5827 5827 5827 5827 5827 5827 5828 5829 5829 5829 5829 5829 5830 5831 5831 5832 5833 5834 5834 5834 5834 5834 5834 5835 5835 5834 5834 5835 5835 5835 5834 5834 5834 5834 5834 5835 5836 5836 5837 5839 5842 5842 5841 5842 5843 5844 5844 5845 5845 5846 5846 5846 5846 5846 5846 5846 5847 5847 5847 5847 5847 5848
5832 5832 5832 5832 5832 5831 5832 5833 5833 5832 5831 5831 5830 5829 5829 5828 5827 5827 5826 5825 5825 5825 5825 5825 5825 5825 5826 5826 5826 5826 5827 5827 5827 5827 5828 5829 5829 5830 5831 5832 5833 5833 5833 5833 5833 5834 5834 5834 5834 5834 5834 5834 5834 5833 5832 5832 5832 5833 5833 5834 5835 5836 5838 5840 5841 5840 5840 5842 5843 5843 5844 5845 5845 5845 5846 5846 5846 5846 5846 5846 5846 5847 5847 5847 5847
5829 5829 5830 5830 5829 5829 5830 5830 5830 5829 5829 5828 5828 5827 5826 5826 5825 5823 5823 5823 5823 5823 5824 5824 5824 5824 5824 5824 5824 5824 5825 5826 5826 5825 5826 5827 5828 5829 5830 5831 5831 5831 5832 5832 5832 5832 5832 5832 5833 5833 5832 5832 5832 5832 5831 5830 5831 5831 5832 5833 5834 5835 5837 5839 5840 5839 5839 5840 5841 5842 5843 5843 5844 5845 5845 5846 5846 5846 5846 5846 5846 5846 5847 5847 5847
5827 5827 5827 5826 5826 5826 5827 5827 5826 5825 5826 5826 5825 5824 5823 5823 5821 5820 5820 5820 5821 5822 5822 5823 5823 5822 5821 5821 5821 5822 5824 5824 5824 5824 5825 5826 5827 5828 5829 5830 5830 5830 5829 5829 5829 5829 5830 5830 5831 5831 5831 5831 5831 5830 5830 5829 5829 5830 5830 5832 5833 5834 5836 5837 5838 5838 5838 5839 5840 5841 5842 5842 5843 5844 5844 5845 5845 5846 5846 5846 5846 5846 5846 5846 5846
5824 5825 5825 5823 5823 5824 5825 5824 5823 5822 5823 5823 5822 5821 5821 5819 5817 5817 5817 5818 5820 5821 5822 5821 5820 5819 5819 5819 5820 5822 5822 5822 5821 5822 5824 5825 5826 5827 5828 5828 5828 5828 5827 5827 5827 5827 5827 5828 5829 5829 5829 5829 5829 5829 5829 5828 5828 5828 5829 5830 5831 5833 5835 5836 5836 5837 5837 5838 5839 5840 5840 5841 5842 5843 5843 5844 5845 5845 5845 5846 5846 5846 5846 5846 5846
5822 5823 5821 5820 5821 5822 5823 5822 5820 5820 5821 5820 5819 5819 5818 5816 5814 5814 5815 5817 5820 5821 5820 5819 5818 5817 5818 5819 5820 5821 5820 5820 5820 5821 5823 5824 5825 5826 5827 5827 5827 5826 5826 5825 5825 5825 5826 5826 5827 5827 5827 5828 5828 5828 5827 5827 5827 5827 5827 5828 5829 5831 5833 5834 5834 5835 5835 5837 5837 5838 5839 5839 5840 5841 5842 5843 5844 5844 5845 5845 5845 5845 5845 5845 5845
5820 5820 5819 5818 5819 5820 5820 5819 5818 5818 5819 5818 5817 5816 5815 5813 5812 5812 5814 5817 5819 5818 5817 5816 5816 5817 5818 5818 5819 5818 5818 5818 5818 5820 5822 5823 5825 5825 5826 5826 5826 5825 5825 5825 5825 5824 5824 5825 5825 5825 5825 5825 5825 5826 5826 5826 5826 5826 5826 5827 5828 5829 5831 5832 5832 5833 5834 5835 5836 5837 5837 5838 5839 5840 5841 5841 5842 5843 5844 5844 5844 5845 5845 5845 5845
5818 5817 5816 5815 5816 5818 5817 5817 5816 5816 5816 5815 5814 5813 5812 5811 5811 5812 5814 5815 5815 5814 5813 5814 5814 5815 5817 5817 5817 5816 5816 5817 5818 5820 5821 5823 5823 5824 5824 5824 5824 5824 5823 5823 5823 5823 5822 5823 5823 5823 5823 5822 5823 5824 5824 5825 5824 5825 5825 5826 5826 5826 5828 5830 5830 5831 5832 5833 5834 5835 5836 5837 5837 5838 5839 5839 5841 5841 5842 5843 5843 5843 5844 5844 5844
5815 5814 5814 5813 5814 5816 5816 5815 5815 5814 5814 5813 5812 5811 5810 5810 5811 5812 5812 5812 5812 5811 5812 5813 5813 5814 5815 5815 5816 5816 5816 5817 5818 5819 5821 5822 5822 5823 5823 5823 5822 5822 5822 5822 5821 5821 5821 5821 5821 5821 5821 5821 5821 5822 5822 5823 5822 5823 5823 5823 5823 5823 5826 5827 5828 5829 5830 5832 5833 5834 5835 5835 5836 5836 5837 5837 5838 5839 5840 5841 5841 5842 5842 5842 5843
5812 5812 5812 5812 5813 5814 5814 5814 5813 5812 5812 5811 5810 5810 5809 5810 5811 5810 5809 5809 5810 5810 5811 5812 5813 5813 5813 5814 5815 5815 5815 5816 5817 5818 5820 5821 5821 5821 5821 5821 5820 5820 5820 5820 5819 5819 5819 5819 5819 5819 5819 5819 5820 5820 5820 5820 5820 5820 5820 5820 5820 5821 5824 5826 5826 5827 5829 5831 5831 5832 5833 5833 5833 5833 5834 5835 5836 5837 5838 5839 5839 5840 5840 5841 5841
5810 5810 5810 5811 5811 5812 5812 5811 5810 5809 5809 5809 5809 5809 5808 5809 5810 5809 5808 5808 5808 5809 5810 5811 5811 5811 5812 5813 5814 5814 5815 5815 5816 5817 5818 5819 5819 5819 5819 5819 5818 5818 5818 5818 5818 5817 5817 5817 5817 5816 5817 5817 5817 5818 5818 5818 5818 5817 5817 5818 5819 5819 5822 5823 5824 5826 5828 5829 5830 5830 5831 5831 5831 5831 5832 5833 5833 5834 5836 5837 5837 5838 5838 5839 5839
5808 5808 5809 5810 5810 5810 5809 5809 5808 5807 5807 5807 5808 5808 5807 5808 5808 5808 5808 5807 5807 5808 5809 5810 5810 5810 5811 5811 5812 5812 5813 5814 5814 5815 5816 5816 5817 5817 5817 5817 5817 5817 5817 5817 5816 5815 5815 5815 5814 5814 5814 5815 5815 5816 5816 5815 5814 5814 5815 5816 5816 5817 5818 5820 5822 5824 5826 5826 5827 5828 5829 5830 5830 5830 5830 5831 5832 5832 5833 5834 5835 5836 5837 5837 5838
5806 5807 5808 5807 5807 5806 5806 5807 5806 5806 5805 5806 5806 5806 5806 5806 5806 5807 5807 5807 5807 5807 5807 5808 5809 5809 5810 5810 5811 5811 5811 5812 5813 5813 5814 5814 5815 5815 5815 5815 5816 5815 5815 5814 5814 5813 5813 5812 5812 5812 5812 5813 5813 5814 5813 5813 5813 5813 5814 5815 5815 5816 5818 5820 5821 5821 5822 5823 5824 5825 5826 5828 5828 5829 5829 5830 5830 5831 5832 5833 5833 5834 5835 5836 5836
5804 5805 5805 5804 5803 5803 5804 5805 5805 5804 5804 5804 5803 5803 5804 5804 5804 5805 5806 5806 5806 5806 5806 5807 5808 5808 5809 5809 5810 5810 5810 5811 5811 5812 5812 5812 5813 5813 5814 5814 5814 5814 5813 5812 5812 5812 5812 5810 5810 5810 5811 5811 5812 5811 5810 5810 5812 5813 5814 5813 5814 5816 5817 5818 5817 5818 5820 5821 5822 5822 5823 5825 5826 5827 5828 5828 5829 5829 5830 5831 5831 5832 5833 5834 5834
5803 5802 5802 5801 5801 5801 5802 5803 5804 5803 5802 5802 5801 5800 5801 5802 5802 5804 5805 5805 5805 5805 5805 5806 5806 5807 5807 5808 5809 5809 5809 5810 5810 5810 5811 5811 5812 5812 5813 5813 5813 5812 5811 5811 5811 5810 5810 5809 5809 5809 5809 5810 5810 5809 5809 5809 5810 5813 5813 5812 5813 5814 5815 5815 5815 5817 5819 5819 5820 5821 5822 5823 5824 5826 5826 5827 5827 5827 5828 5829 5829 5830 5831 5831 5832
5800 5800 5800 5800 5800 5800 5801 5801 5801 5801 5801 5800 5799 5799 5800 5801 5801 5802 5803 5803 5804 5804 5805 5805 5805 5805 5806 5807 5807 5807 5808 5808 5809 5809 5809 5810 5811 5811 5812 5812 5811 5810 5810 5809 5809 5809 5808 5808 5808 5808 5808 5808 5808 5808 5808 5808 5809 5810 5812 5812 5812 5812 5813 5814 5815 5816 5817 5818 5819 5820 5821 5823 5823 5824 5824 5825 5825 5825 5826 5826 5827 5828 5829 5829 5830
5798 5798 5798 5798 5799 5799 5799 5798 5798 5798 5798 5798 5797 5797 5799 5799 5799 5800 5801 5801 5802 5803 5803 5804 5804 5804 5805 5805 5806 5806 5807 5807 5806 5807 5808 5808 5809 5810 5810 5810 5810 5809 5808 5808 5808 5808 5807 5807 5806 5807 5806 5806 5806 5807 5807 5808 5808 5808 5810 5811 5811 5812 5813 5814 5814 5815 5816 5817 5818 5819 5820 5820 5821 5821 5821 5822 5823 5823 5824 5825 5826 5826 5827 5827 5827
5796 5796 5796 5795 5796 5796 5796 5796 5796 5796 5796 5796 5794 5795 5797 5797 5797 5798 5798 5799 5800 5802 5803 5804 5804 5804 5804 5804 5805 5805 5805 5805 5805 5806 5807 5807 5808 5808 5809 5809 5809 5808 5808 5807 5807 5807 5806 5806 5805 5805 5805 5805 5806 5806 5806 5807 5807 5807 5808 5810 5810 5811 5812 5813 5813 5814 5815 5816 5817 5817 5818 5818 5819 5819 5819 5820 5821 5822 5822 5823 5824 5824 5825 5825 5825
5795 5795 5794 5792 5792 5793 5793 5793 5794 5794 5795 5793 5792 5793 5795 5796 5796 5796 5797 5798 5800 5801 5802 5803 5803 5803 5803 5803 5804 5804 5804 5803 5803 5805 5806 5806 5807 5807 5807 5807 5807 5807 5806 5806 5806 5805 5805 5804 5804 5805 5805 5805 5805 5805 5805 5805 5806 5807 5807 5809 5810 5810 5811 5811 5812 5813 5813 5814 5815 5815 5816 5816 5817 5817 5818 5819 5819 5819 5820 5820 5821 5822 5823 5824 5824
5793 5793 5791 5790 5789 5789 5790 5791 5792 5793 5794 5793 5791 5792 5793 5794 5795 5796 5797 5798 5800 5801 5802 5802 5803 5803 5803 5803 5804 5804 5804 5803 5804 5805 5805 5806 5806 5806 5806 5806 5805 5805 5805 5804 5804 5804 5804 5803 5803 5804 5804 5804 5804 5804 5804 5804 5805 5807 5808 5809 5810 5810 5811 5811 5811 5810 5810 5812 5813 5813 5814 5815 5815 5816 5816 5817 5817 5817 5818 5818 5819 5820 5821 5822 5822
5790 5789 5788 5787 5786 5786 5788 5789 5791 5792 5793 5792 5791 5792 5793 5794 5794 5795 5797 5798 5800 5801 5801 5802 5802 5802 5802 5803 5803 5803 5803 5803 5804 5805 5805 5806 5805 5805 5805 5804 5804 5804 5803 5803 5803 5803 5803 5802 5803 5803 5804 5804 5804 5804 5804 5803 5804 5805 5807 5809 5810 5810 5810 5810 5809 5808 5808 5810 5811 5812 5812 5813 5814 5814 5814 5815 5815 5815 5816 5816 5817 5818 5819 5820 5820
5787 5784 5782 5782 5784 5785 5786 5788 5789 5790 5791 5792 5792 5793 5794 5794 5794 5795 5797 5798 5799 5800 5801 5801 5801 5801 5802 5802 5802 5802 5802 5803 5804 5804 5805 5805 5805 5804 5804 5803 5803 5803 5802 5802 5802 5802 5802 5802 5802 5802 5803 5804 5804 5804 5804 5804 5803 5804 5806 5808 5810 5810 5809 5808 5807 5807 5808 5810 5810 5810 5811 5812 5812 5813 5813 5813 5814 5814 5814 5815 5816 5817 5817 5818 5818
5783 5780 5778 5780 5783 5785 5786 5787 5788 5789 5790 5791 5793 5793 5794 5795 5795 5795 5796 5797 5798 5798 5799 5799 5799 5800 5801 5801 5802 5802 5802 5802 5803 5803 5803 5804 5804 5804 5803 5803 5802 5802 5801 5800 5800 5801 5801 5801 5800 5801 5802 5803 5803 5804 5804 5804 5804 5804 5805 5807 5808 5808 5806 5805 5806 5807 5808 5810 5809 5809 5810 5811 5811 5811 5812 5812 5812 5813 5813 5814 5815 5816 5816 5816 5816
5780 5777 5777 5780 5782 5784 5785 5786 5787 5788 5789 5791 5792 5792 5793 5794 5795 5795 5796 5797 5797 5797 5798 5798 5798 5799 5800 5800 5800 5801 5801 5801 5801 5802 5802 5802 5802 5802 5802 5802 5801 5800 5800 5799 5799 5799 5799 5799 5800 5800 5801 5801 5802 5803 5803 5804 5804 5804 5804 5806 5807 5806 5805 5804 5805 5806 5807 5808 5807 5808 5809 5810 5810 5810 5810 5810 5811 5811 5812 5813 5814 5814 5814 5814 5814
5777 5776 5778 5780 5782 5783 5784 5786 5787 5788 5789 5790 5791 5791 5792 5794 5795 5795 5796 5796 5796 5797 5797 5797 5797 5798 5799 5799 5799 5799 5799 5800 5800 5800 5800 5800 5800 5800 5800 5800 5800 5800 5799 5799 5798 5798 5798 5798 5799 5799 5800 5800 5801 5802 5803 5803 5803 5804 5804 5804 5805 5806 5805 5804 5804 5805 5805 5806 5806 5806 5807 5808 5808 5809 5809 5809 5810 5811 5811 5812 5813 5813 5813 5813 5812
5776 5776 5777 5779 5781 5782 5784 5785 5787 5788 5790 5790 5790 5790 5791 5792 5793 5794 5794 5795 5795 5795 5796 5797 5798 5799 5799 5799 5799 5799 5799 5799 5799 5799 5799 5798 5798 5798 5798 5799 5799 5799 5798 5798 5798 5798 5798 5798 5798 5798 5799 5800 5800 5802 5802 5802 5802 5803 5804 5804 5804 5804 5803 5803 5803 5804 5804 5805 5804 5805 5806 5806 5807 5808 5808 5808 5809 5810 5810 5810 5811 5811 5811 5811 5811
5775 5775 5776 5778 5780 5781 5782 5783 5785 5786 5788 5788 5789 5789 5790 5791 5791 5792 5793 5793 5794 5794 5795 5797 5799 5799 5798 5798 5798 5798 5798 5797 5797 5797 5797 5796 5796 5796 5797 5797 5797 5797 5797 5797 5797 5797 5797 5797 5797 5797 5798 5798 5799 5801 5802 5802 5802 5802 5802 5802 5802 5802 5802 5802 5802 5803 5803 5803 5803 5804 5804 5805 5806 5807 5807 5807 5808 5808 5808 5809 5809 5809 5809 5809 5809
5774 5775 5775 5776 5778 5779 5780 5780 5781 5782 5784 5785 5787 5787 5788 5789 5790 5791 5792 5792 5793 5794 5795 5797 5798 5798 5797 5797 5796 5796 5796 5796 5795 5795 5795 5795 5795 5795 5795 5795 5796 5796 5797 5797 5797 5797 5797 5797 5797 5797 5797 5797 5798 5799 5800 5801 5800 5800 5801 5801 5801 5801 5801 5801 5801 5801 5802 5802 5802 5803 5804 5804 5805 5806 5806 5806 5807 5807 5807 5807 5807 5807 5807 5807 5807
5773 5773 5772 5773 5775 5776 5777 5777 5778 5778 5780 5782 5784 5785 5787 5788 5789 5790 5791 5792 5793 5793 5795 5795 5796 5795 5795 5795 5794 5794 5795 5794 5794 5794 5794 5793 5793 5793 5794 5794 5795 5795 5796 5796 5796 5797 5797 5796 5796 5796 5796 5796 5797 5798 5799 5799 5799 5800 5800 5801 5801 5800 5800 5800 5800 5800 5801 5801 5801 5802 5803 5803 5803 5804 5805 5805 5805 5805 5806 5806 5805 5805 5805 5805 5805
5769 5770 5769 5770 5773 5774 5775 5776 5776 5777 5778 5780 5782 5783 5785 5786 5787 5788 5789 5790 5791 5792 5793 5793 5793 5793 5793 5793 5793 5793 5793 5793 5793 5793 5793 5792 5792 5792 5792 5793 5794 5794 5795 5795 5795 5795 5795 5795 5795 5795 5795 5795 5795 5796 5797 5798 5798 5799 5799 5800 5800 5799 5799 5799 5799 5799 5799 5800 5800 5800 5801 5802 5802 5802 5803 5803 5804 5804 5804 5803 5803 5803 5804 5803 5803
5767 5768 5768 5769 5771 5773 5774 5775 5775 5777 5778 5779 5780 5782 5783 5784 5785 5786 5787 5787 5788 5790 5791 5791 5791 5792 5792 5792 5792 5791 5791 5792 5792 5791 5791 5790 5790 5790 5791 5792 5793 5793 5794 5794 5794 5794 5794 5794 5794 5793 5793 5794 5794 5794 5795 5796 5796 5797 5797 5798 5798 5798 5797 5797 5798 5798 5798 5798 5799 5799 5799 5800 5800 5800 5801 5802 5802 5801 5801 5801 5801 5801 5801 5801 5801
5767 5767 5768 5769 5770 5771 5773 5773 5775 5776 5777 5778 5779 5780 5782 5783 5784 5785 5786 5787 5787 5788 5789 5789 5789 5790 5790 5791 5791 5791 5791 5790 5790 5789 5789 5789 5789 5790 5790 5790 5791 5792 5792 5792 5792 5792 5792 5792 5792 5791 5791 5792 5792 5793 5793 5793 5794 5795 5795 5795 5796 5795 5796 5796 5797 5797 5797 5797 5798 5798 5798 5798 5798 5799 5800 5800 5800 5799 5798 5798 5799 5799 5799 5799 5799
5767 5766 5767 5768 5769 5769 5770 5772 5773 5774 5776 5777 5778 5779 5781 5781 5782 5783 5785 5785 5786 5787 5787 5788 5788 5788 5789 5790 5790 5790 5789 5789 5788 5788 5788 5788 5788 5788 5788 5788 5788 5789 5789 5790 5790 5790 5790 5790 5790 5790 5789 5789 5790 5791 5791 5791 5792 5792 5793 5793 5793 5793 5794 5794 5795 5795 5796 5796 5797 5797 5797 5797 5797 5798 5798 5798 5798 5797 5797 5797 5797 5797 5797 5797 5797
5766 5766 5766 5766 5766 5767 5769 5770 5771 5773 5774 5775 5777 5778 5779 5779 5779 5780 5782 5783 5784 5785 5786 5786 5787 5787 5788 5788 5789 5789 5789 5788 5787 5787 5787 5787 5786 5786 5786 5786 5786 5786 5787 5787 5787 5788 5787 5787 5787 5787 5788 5788 5788 5789 5789 5789 5790 5790 5790 5790 5790 5791 5792 5792 5792 5793 5794 5795 5795 5795 5795 5795 5796 5796 5796 5796 5796 5795 5795 5795 5795 5795 5795 5795 5795